SL-14 DEB, 45284

Orbit data source: Space-Track

SL-14 DEB, 45284 is space debris in LEO originally from a launch on Thu, 15 Aug 1991 UTC launched from the Plesetsk Missile And Space Complex (PKMTR). Debris objects in space refer to the collection of defunct objects orbiting the Earth. Examples of debris include non-operational satellites, rocket bodies, and fragments generated from explosions, collisions, or faulty payload assembly.

Loading next visibility...
Identifier
45284, 1991-056W
Orbit
LEO
Country
Flag of CISCIS
Related business
Manufacturer
Unknown
Mission
Spacecraft
Bus & Motor
Unknown
Mass
Unknown
Launch date (UTC)
1991-08-15 (35 years ago)
Launch vehicle
Unknown
Launch site
Plesetsk Missile And Space Complex (PKMTR)
Object type
Payload
Rocket body
Debris
Shape & HBR
Unknown shape, 0.2 m
Radar Cross Section
Medium (>0.1 m² and <1 m²)

Expand to show TLE details & history
Last TLE update: 8 hours ago

TLE from 8 hours ago
0 SL-14 DEB
1 45284U 91056W   26257.55766882 -.00005075  00000-0 -82307-2 0  9994
2 45284  82.5720  11.4849 0095860   1.6360 358.5074 13.46515169321177
Epoch: 2026-09-14T13:23Z
TLE epoch observation values (Epoch: 2026-09-14T13:23:02.586Z)
Latitude
0.00004°
Longitude
177.18788°
Altitude
1,016.426 km
Speed
7.379 km/s
True Right ascension
00h 45m 56s
True Declination
0° 00' 00"
Sunlit
Object was in full shadow at epoch
Visualization orbit readout
Latitude
Unknown
Longitude
Unknown
Altitude
Unknown
Speed
Unknown
Apparent Right ascension
Unknown
Apparent Declination
Unknown
Sunlit
N/A
Visualization observer readout
Local Sidereal Time
13:38:08
Azimuth
Unknown
Elevation
Unknown
Doppler factor
Unknown
Orbital elements
Apogee altitude
1,153.826 km
Perigee altitude
1,010.794 km
Semi-major axis
7,460.447 km
Eccentricity
0.00959
Inclination
82.572°
RAAN
11.4849°
Arg. of periapsis
1.636°
True anomaly
358.47844°
Mean anomaly
358.5074°
Eccentric anomaly
358.49296°
Mean motion
3.36818 °/min
Orbital period
106.88 mins
BSTAR
-0.0082307
Loading maneuver chart data...
Computing Atmospheric mass density...
Loading historical data...
Loading historical data...
Loading historical data...
Loading historical data...
Loading historical data...
Loading historical data...
Loading historical data...

Documentation

Showing up to 5 results
|